Location: Baia Mare
(47.6567°N, 23.5850°E)
Time: 07:04:14
(UTC+03:00)

ISS - Pass Details

Date: 24 May 2018
Orbit: 402 x 407 km, 51.6° (Epoch: 24 May)

Event Time Altitude Azimuth Distance (km) Brightness Sun altitude
Rises 23:53:15 0° 277° (W) 2,319 0.4 -18.6°
Reaches altitude 10° 23:55:25 10° 285° (WNW) 1,459 -0.5 -18.7°
Maximum altitude 23:58:31 39° 356° (N) 619 -2.4 -18.9°
Drops below altitude 10° 00:01:37 10° 68° (ENE) 1,458 -1.0 -19.1°
Enters shadow 00:03:09 - 75° (ENE) 2,062 -0.3 -19.2°
